Location: Newark
(50.9000°N, 14.8333°E)
Time: 14:37:32
(UTC+00:00)

ISS - Pass Details

Date: 05 November 2020
Orbit: 418 x 420 km, 51.6° (Epoch: 30 November)

Event Time Altitude Azimuth Distance (km) Brightness Sun altitude
Exits shadow 04:10:05 54° 263° (W) 521 -3.7 -17.6°
Maximum altitude 04:10:42 73° 199° (SSW) 444 -3.8 -17.5°
Drops below altitude 10° 04:14:05 10° 113° (ESE) 1,505 0.2 -16.9°
Sets 04:16:11 0° 111° (ESE) 2,368 1.5 -16.6°
